Plattsmouth, NE

8:39 PM CST on December 08, 2019 (GMT -0600)
Plattsmouth Municipal

Weather History for KPMV - October, 2019

Change the Weather History Date:

Saturday, October 19, 2019

  Actual Average (WUND) Record (WUND)
Temperature  
Mean Temperature 58 °F -  
Max Temperature 66 °F - - (-1)
Min Temperature 50 °F - - (-1)
Degree Days  
Heating Degree Days 7    
Growing Degree Days 8 (Base 50)    
Moisture  
Dew Point 45 °F    
Average Humidity 68    
Maximum Humidity 99    
Minimum Humidity 33    
Precipitation  
Precipitation 0.10 in - - ()
Sea Level Pressure  
Sea Level Pressure 29.77 in    
Wind  
Wind Speed 6 mph (West)    
Max Wind Speed 13 mph    
Max Gust Speed -    
Visibility 10 miles    
Events Rain    
Averages and records for this station are not official NWS values.
T = Trace of Precipitation, MM = Missing Value Source: NWS Daily Summary

Daily Weather History Graph

Daily Weather History Graph

Search for Another Location

Airport or City:

Astronomy

Oct. 19, 2019 Rise Set
Actual Time 7:39 AM CDT 6:37 PM CDT
Civil Twilight 7:11 AM CDT 7:05 PM CDT
Nautical Twilight 6:39 AM CDT 7:37 PM CDT
Astronomical Twilight 6:07 AM CDT 8:08 PM CDT
Moon 10:45 PM CDT (10/19) 1:14 PM CDT (10/19)
Length of Visible Light 11h 53m
Length of Day
10h 58m
Waning Gibbous, 69% of the Moon is Illuminated
Oct 19
Waning Gibbous
Oct 21
Last Quarter
Oct 27
New
Nov 4
First Quarter
Nov 12
Full

Hourly Weather History & Observations

Time (CDT) Temp. Dew Point Humidity Pressure Visibility Wind Dir Wind Speed Gust Speed Precip Events Conditions
12:15 AM 58.8 °F 46.9 °F 65% 29.69 in 10.0 mi SSW 5.8 mph - N/A   Overcast
12:35 AM 58.1 °F 46.4 °F 65% 29.69 in 10.0 mi South 8.1 mph - N/A   Scattered Clouds
12:55 AM 59.5 °F 46.9 °F 63% 29.70 in 10.0 mi South 6.9 mph - N/A   Mostly Cloudy
1:15 AM 59.5 °F 46.9 °F 63% 29.69 in 10.0 mi SSW 8.1 mph - N/A   Overcast
1:35 AM 60.1 °F 47.3 °F 63% 29.69 in 10.0 mi SSW 9.2 mph - N/A   Overcast
1:55 AM 59.5 °F 47.1 °F 63% 29.69 in 10.0 mi WSW 5.8 mph - N/A   Overcast
2:15 AM 58.8 °F 47.7 °F 66% 29.71 in 10.0 mi WNW 11.5 mph - N/A Rain Rain
2:35 AM 55.0 °F 50.9 °F 86% 29.70 in 7.0 mi NW 12.7 mph - 0.02 in Rain Rain
2:55 AM 53.6 °F 51.3 °F 92% 29.67 in 10.0 mi North 5.8 mph - 0.05 in Rain Rain
3:15 AM 53.6 °F 51.6 °F 93% 29.70 in 10.0 mi West 9.2 mph - 0.01 in Rain Light Rain
3:35 AM 52.7 °F 52.0 °F 97% 29.72 in 10.0 mi West 8.1 mph - 0.02 in   Drizzle
3:55 AM 52.5 °F 52.0 °F 98% 29.72 in 10.0 mi West 5.8 mph - 0.02 in Rain Light Rain
4:15 AM 52.2 °F 51.8 °F 99% 29.72 in 10.0 mi WNW 5.8 mph - 0.01 in Rain Light Rain
4:35 AM 51.8 °F 51.1 °F 97% 29.71 in 10.0 mi NW 4.6 mph - 0.01 in   Overcast
4:55 AM 51.8 °F 50.9 °F 97% 29.72 in 10.0 mi West 6.9 mph - 0.01 in   Overcast
5:15 AM 51.4 °F 50.2 °F 95% 29.74 in 10.0 mi West 4.6 mph - 0.01 in Rain Rain
5:35 AM 51.1 °F 50.0 °F 96% 29.74 in 10.0 mi Calm Calm - 0.01 in Rain Light Rain
5:55 AM 51.3 °F 49.6 °F 94% 29.75 in 10.0 mi Calm Calm - 0.01 in   Overcast
6:15 AM 50.7 °F 50.0 °F 97% 29.76 in 10.0 mi Calm Calm - N/A   Overcast
6:35 AM 50.5 °F 50.2 °F 99% 29.76 in 10.0 mi Calm Calm - N/A   Overcast
6:55 AM 50.9 °F 49.6 °F 95% 29.76 in 10.0 mi WNW 4.6 mph - N/A   Overcast
7:15 AM 50.4 °F 49.5 °F 97% 29.77 in 10.0 mi Calm Calm - N/A   Overcast
7:35 AM 50.0 °F 49.1 °F 97% 29.76 in 10.0 mi West 4.6 mph - N/A   Overcast
7:55 AM 50.0 °F 49.3 °F 97% 29.77 in 10.0 mi WNW 4.6 mph - N/A   Overcast
8:15 AM 50.5 °F 49.3 °F 95% 29.77 in 10.0 mi West 3.5 mph - N/A   Overcast
8:35 AM 50.9 °F 50.0 °F 97% 29.78 in 10.0 mi West 3.5 mph - N/A   Overcast
8:55 AM 51.1 °F 50.0 °F 96% 29.79 in 10.0 mi WNW 5.8 mph - N/A   Overcast
9:15 AM 50.9 °F 49.8 °F 96% 29.80 in 10.0 mi WNW 6.9 mph - N/A   Mostly Cloudy
9:55 AM 53.4 °F 50.5 °F 90% 29.81 in 10.0 mi NW 6.9 mph - N/A   Clear
10:15 AM 54.3 °F 50.2 °F 86% 29.81 in 10.0 mi NW 8.1 mph - N/A   Clear
10:35 AM 55.2 °F 49.5 °F 81% 29.81 in 10.0 mi NW 6.9 mph - 0.01 in   Clear
10:55 AM 56.5 °F 49.1 °F 76% 29.82 in 10.0 mi NNW 6.9 mph - 0.01 in   Clear
11:15 AM 57.9 °F 50.4 °F 76% 29.82 in 10.0 mi NW 5.8 mph - N/A   Clear
11:35 AM 58.3 °F 48.6 °F 70% 29.82 in 10.0 mi NW 5.8 mph - N/A   Clear
11:55 AM 59.0 °F 47.3 °F 65% 29.81 in 10.0 mi NNW 6.9 mph - N/A   Clear
12:15 PM 60.3 °F 46.6 °F 61% 29.81 in 10.0 mi NW 3.5 mph - N/A   Clear
12:35 PM 61.0 °F 45.3 °F 56% 29.81 in 10.0 mi Calm Calm - N/A   Clear
12:55 PM 62.2 °F 45.3 °F 54% 29.81 in 10.0 mi WNW 4.6 mph - N/A   Clear
1:15 PM 63.0 °F 44.2 °F 50% 29.79 in 10.0 mi NW 6.9 mph - N/A   Clear
1:35 PM 63.9 °F 43.3 °F 47% 29.79 in 10.0 mi NNW 8.1 mph - N/A   Clear
1:55 PM 64.0 °F 41.9 °F 44% 29.78 in 10.0 mi NNW 6.9 mph - N/A   Clear
2:15 PM 64.4 °F 41.9 °F 44% 29.78 in 10.0 mi WNW 3.5 mph - N/A   Clear
2:35 PM 65.1 °F 40.3 °F 40% 29.77 in 10.0 mi WNW 6.9 mph - N/A   Clear
2:55 PM 65.5 °F 39.7 °F 39% 29.77 in 10.0 mi NNW 5.8 mph - N/A   Clear
3:15 PM 65.7 °F 40.3 °F 39% 29.77 in 10.0 mi WNW 4.6 mph - N/A   Clear
3:35 PM 66.0 °F 39.2 °F 37% 29.77 in 10.0 mi NW 6.9 mph - N/A   Clear
3:55 PM 66.4 °F 39.2 °F 37% 29.76 in 10.0 mi NW 6.9 mph - N/A   Clear
4:15 PM 66.2 °F 38.1 °F 36% 29.77 in 10.0 mi NW 6.9 mph - N/A   Clear
4:35 PM 66.0 °F 37.8 °F 35% 29.77 in 10.0 mi WNW 3.5 mph - N/A   Clear
4:55 PM 66.2 °F 37.0 °F 34% 29.77 in 10.0 mi North 3.5 mph - N/A   Clear
5:15 PM 65.7 °F 36.7 °F 34% 29.77 in 10.0 mi NNW 3.5 mph - N/A   Clear
5:35 PM 65.5 °F 35.2 °F 33% 29.77 in 10.0 mi Calm Calm - N/A   Clear
5:55 PM 64.4 °F 37.8 °F 37% 29.77 in 10.0 mi Calm Calm - N/A   Clear
6:15 PM 64.2 °F 36.1 °F 35% 29.77 in 10.0 mi Calm Calm - N/A   Clear
6:55 PM 61.2 °F 40.3 °F 46% 29.78 in 10.0 mi Calm Calm - N/A   Clear
7:15 PM 59.5 °F 41.9 °F 52% 29.79 in 10.0 mi Calm Calm - N/A   Clear
7:35 PM 56.8 °F 41.0 °F 55% 29.79 in 10.0 mi South 4.6 mph - N/A   Clear
7:55 PM 56.3 °F 42.1 °F 59% 29.80 in 10.0 mi SSE 3.5 mph - N/A   Clear
8:15 PM 56.3 °F 41.9 °F 59% 29.79 in 10.0 mi SSE 4.6 mph - N/A   Clear
8:35 PM 56.5 °F 41.0 °F 56% 29.80 in 10.0 mi SSE 4.6 mph - N/A   Clear
8:55 PM 55.6 °F 40.5 °F 57% 29.80 in 10.0 mi South 3.5 mph - N/A   Clear
9:15 PM 54.1 °F 41.0 °F 61% 29.81 in 10.0 mi SSE 4.6 mph - N/A   Clear
9:35 PM 52.9 °F 40.6 °F 63% 29.81 in 10.0 mi South 5.8 mph - N/A   Clear
9:55 PM 51.4 °F 42.1 °F 70% 29.81 in 10.0 mi South 6.9 mph - N/A   Clear
10:15 PM 50.9 °F 42.8 °F 74% 29.81 in 10.0 mi South 8.1 mph - N/A   Clear
10:35 PM 52.9 °F 42.3 °F 67% 29.81 in 10.0 mi South 8.1 mph - N/A   Clear
10:55 PM 52.7 °F 42.1 °F 67% 29.81 in 10.0 mi SSE 8.1 mph - N/A   Clear
11:15 PM 52.2 °F 42.1 °F 69% 29.81 in 10.0 mi SSE 5.8 mph - N/A   Clear
11:35 PM 51.6 °F 41.9 °F 69% 29.81 in 10.0 mi SSE 6.9 mph - N/A   Clear
11:55 PM 50.9 °F 42.8 °F 74% 29.80 in 10.0 mi SSE 5.8 mph - N/A   Clear